Dover AFB, DE

7:40 PM EDT on July 25, 2017 (GMT -0400)
Dover Air Force Base

Weather History for KDOV - June, 2013

Change the Weather History Date:

Saturday, June 15, 2013

  Actual Average Record
Temperature  
Mean Temperature 70 °F -  
Max Temperature 81 °F 83 °F 96 °F (1987)
Min Temperature 60 °F 61 °F 49 °F (1978)
Cooling Degree Days 6    
Growing Degree Days 20 (Base 50)    
Moisture  
Dew Point 58 °F    
Average Humidity 65    
Maximum Humidity 97    
Minimum Humidity 41    
Precipitation  
Precipitation 0.00 in - - ()
Sea Level Pressure  
Sea Level Pressure 30.00 in    
Wind  
Wind Speed 6 mph (West)    
Max Wind Speed 15 mph    
Max Gust Speed 21 mph    
Visibility 10 miles    
Events      
Averages and records for this station are not official NWS values.
T = Trace of Precipitation, MM = Missing Value Source: NWS Daily Summary

Daily Weather History Graph

Daily Weather History Graph

Search for Another Location

Airport or City:

Trip Planner

Search our weather history database for the weather conditions in past years. The results will help you decide how hot, cold, wet, or windy it might be!

Date:

Astronomy

Jun. 15, 2013 Rise Set
Actual Time 5:35 AM EDT 8:29 PM EDT
Civil Twilight 5:03 AM EDT 9:01 PM EDT
Nautical Twilight 4:22 AM EDT 9:42 PM EDT
Astronomical Twilight 3:35 AM EDT 10:29 PM EDT
Moon 12:04 PM EDT (6/15) 12:06 AM EDT (6/15)
Length of Visible Light 15h 58m
Length of Day
14h 54m
Waxing Crescent, 39% of the Moon is Illuminated
Jun 15
Waxing Crescent
Jun 16
First Quarter
Jun 23
Full
Jun 30
Last Quarter
Jul 8
New

Hourly Weather History & Observations

Time (EDT) Temp. Heat Index Dew Point Humidity Pressure Visibility Wind Dir Wind Speed Gust Speed Precip Events Conditions
12:58 AM 63.3 °F - 59.7 °F 88% 29.94 in 10.0 mi West 3.5 mph - N/A   Clear
1:58 AM 63.1 °F - 60.1 °F 90% 29.95 in 10.0 mi West 2.3 mph - N/A   Clear
2:58 AM 60.6 °F - 59.9 °F 97% 29.95 in 10.0 mi West 1.2 mph - N/A   Clear
3:58 AM 60.3 °F - 59.2 °F 96% 29.97 in 10.0 mi WNW 3.5 mph - N/A   Clear
4:58 AM 60.8 °F - 57.9 °F 90% 29.96 in 10.0 mi NW 3.5 mph - N/A   Clear
5:58 AM 60.1 °F - 58.3 °F 94% 29.99 in 10.0 mi West 3.5 mph - N/A   Clear
6:58 AM 63.3 °F - 60.3 °F 90% 30.01 in 10.0 mi WNW 4.6 mph - N/A   Clear
7:58 AM 67.8 °F - 60.4 °F 77% 30.02 in 10.0 mi NW 6.9 mph - N/A   Clear
8:58 AM 71.8 °F - 60.1 °F 67% 30.05 in 9.0 mi NW 8.1 mph - N/A   Clear
9:58 AM 74.3 °F - 61.7 °F 65% 30.05 in 10.0 mi West 5.8 mph - N/A   Clear
10:58 AM 76.5 °F - 59.7 °F 56% 30.04 in 10.0 mi West 10.4 mph - N/A   Clear
11:58 AM 78.3 °F - 59.7 °F 53% 30.03 in 10.0 mi West 11.5 mph 20.7 mph N/A   Partly Cloudy
12:58 PM 78.6 °F - 57.0 °F 47% 30.02 in 10.0 mi NW 10.4 mph 17.3 mph N/A   Partly Cloudy
1:58 PM 78.8 °F - 56.8 °F 47% 30.00 in 10.0 mi WNW 11.5 mph - N/A   Clear
1:59 PM 78.8 °F - 57.2 °F 47% 29.99 in 10.0 mi WSW 11.5 mph - N/A   Clear
2:10 PM 78.8 °F - 57.2 °F 47% 29.99 in 10.0 mi WNW 12.7 mph - N/A   Partly Cloudy
2:58 PM 81.1 °F 81.0 °F 56.3 °F 42% 30.00 in 10.0 mi WNW 15.0 mph 20.7 mph N/A   Clear
3:58 PM 81.3 °F 81.1 °F 56.1 °F 42% 29.99 in 10.0 mi WSW 12.7 mph 17.3 mph N/A   Scattered Clouds
4:58 PM 81.3 °F 81.0 °F 55.6 °F 41% 29.98 in 10.0 mi WNW 12.7 mph - N/A   Partly Cloudy
5:58 PM 80.6 °F 80.6 °F 55.9 °F 43% 29.97 in 10.0 mi WSW 9.2 mph - N/A   Clear
6:58 PM 78.3 °F - 55.9 °F 46% 29.98 in 10.0 mi West 8.1 mph - N/A   Clear
7:58 PM 76.8 °F - 56.8 °F 50% 29.99 in 10.0 mi WSW 5.8 mph - N/A   Clear
8:58 PM 74.1 °F - 57.7 °F 56% 30.00 in 10.0 mi WSW 4.6 mph - N/A   Clear
9:58 PM 70.5 °F - 58.6 °F 66% 30.02 in 10.0 mi SW 6.9 mph - N/A   Clear
10:58 PM 68.4 °F - 59.5 °F 73% 30.02 in 10.0 mi SW 5.8 mph - N/A   Clear
11:58 PM 65.3 °F - 60.1 °F 83% 30.02 in 10.0 mi South 3.5 mph - N/A   Clear